NOAA 17 DEB

Satellite information

Favourite Embed

Satellite Type and Status

DEBRISIN ORBIT

Key statistics

Satellite NOAA 17 DEB at a glance.

Uptime

8524

Days in orbit

Revolutions

≈ 14.5

Per day

Orbit

SSO

Sun Synchronous Orbit

Inclination

98.9

Latest

Satellite identification and parameters

Extended collection of information and parameters for NOAA 17 DEB.

Object identification

Identified? True

Debris? True

Object name: NOAA 17 DEB

International designator: 2002-032U

Object number (NORAD): 48179

Object ID (CCSDS): 48179

Country: UNITED STATES OF AMERICA (US)

Current information (Y/N): Y

RCS size: SMALL

Orbital parameters

Period: 99.263 minutes

Inclination: 98.8564 deg

SMA: 7101.535 km

Apoapsis: 751.213 km

Periapsis: 695.588 km

RAAN: 324.7993 deg

Eccentricy: 0.0039164

Argument of periapsis: 7.5502 deg

Mean anomaly: 352.6273 deg

Mean motion: 14.5068924 rev/day

Mean motion (dot): 0.00003437 rev/day2

B* drag term: 0.00087879 1/REarth

Two-line elements (TLE)

Creation date: Oct. 23, 2025, 10:16 p.m.

Reference frame: TEME

Reference center: EARTH

Epoch: Oct. 23, 2025, 1:11 p.m. UTC

TLE line 0: 0 NOAA 17 DEB

TLE line 1: 1 48179U 02032U 25296.54943720 .00003437 00000-0 87879-3 0 9993

TLE line 2: 2 48179 98.8564 324.7993 0039164 7.5502 352.6273 14.50689240241273

Live tracking on map

Real-time ground track for satellite NOAA 17 DEB.

In-orbit conjunctions

A list of the most updated potential collisions computed for object NOAA 17 DEB.

Target Orbit TCA Probability of collision Miss distance Type
PEGASUS DEB LEO 2024-11-10 09:29:43 0.0005354683 198.0 (m) DEBRIS
IRIDIUM 17 LEO 2024-09-28 04:10:32 0.0001097544 954.0 (m) PAYLOAD
IRIDIUM 33 DEB LEO 2024-09-24 18:00:22 0.0001966782 548.0 (m) DEBRIS

Associated space launch

NOAA M carried weather imagers and microwave and infrared sounders, as well as a SARSAT search-and-rescue package. It had an on-orbit mass of 1475 kg.

NOAA 17 DEB was lifted into orbit during the mission ‘Titan II SLV | NOAA 17’, on board a Titan II SLV space rocket.

The launch took place on June 24, 2002, 6:23 p.m. from Space Launch Complex 4W.

For more information about the launch, click the button.

Launch to space Titan II SLV | NOAA 17
Titan II SLV | NOAA 17

Agency: N/A

Status: Launch Successful

Launch date: June 24, 2002, 6:23 p.m. UTC

Rocket: Titan II SLV

Launch pad: Space Launch Complex 4W

Location: Vandenberg SFB, CA, USA

...

Latest news about this satellite

There are no fresh news available about this satellite. Check back as we update our databases every day.


Newsletter sign-up

Weekly statistics, charts and insights to help you stay on top of the space industry.